Location: Newark
(36.6294°S, 72.9458°W)
Time: 06:59:44
(UTC+00:00)

LightSail 2 - Pass Details

Date: 25 January 2020
Orbit: 700 x 722 km, 24.0° (Epoch: 18 February)

Event Time Altitude Azimuth Distance (km) Brightness Sun altitude
Exits shadow 08:08:13 13° 16° (NNE) 1,987 7.2 -19.4°
Drops below altitude 10° 08:10:28 10° 42° (NE) 2,199 7.7 -19.0°
Sets 08:14:11 0° 69° (ENE) 3,117 8.8 -18.5°
